{"data":{"norad_id":28370,"epoch":"2026-05-25T00:11:22.051104Z","epoch_age_seconds":81509,"freshness":"FRESH","line1":"1 28370U 04025E   26145.00789411  .00000235  00000+0  72319-4 0  9994","line2":"2 28370  98.6645 156.5980 0054733 331.0078  28.8078 14.49964614156742","mean_motion":14.49964614,"eccentricity":0.0054733,"inclination_deg":98.6645,"raan_deg":156.598,"arg_perigee_deg":331.0078,"mean_anomaly_deg":28.8078,"bstar":7.2319e-5,"rev_number":15674,"period_min":99.312768470086,"perigee_km":686.88230256852,"apogee_km":764.64586617873,"semimajor_km":7103.9010843736,"source":"CELESTRAK","updated_at":"2026-05-25T13:37:55.059257Z"}}